Weather in Roquetas de Mar

Spain     36°45′49″N   2°36′44″W
temp.,
°C
wind,
m/s
gust,
m/s
humid.,
%
clouds,
%
prec.,
mm/h
press.,
hPa
HPBL,
m
17 october, sun
sun1723:00+21sw3378100 0.0 1017177
02:00+20sw1279100 0.0 1016139
05:00+21sw1179100 0.0 101674
08:00+21ene337797 0.1 1017139
11:00+21sse227745 0.0 1018123
14:00+22sw1173100 0.2 1018158
17:00+22se3473100 0.2 1017250
20:00+21ese237680 0.2 1018133
18 october, mon
mon1823:00+22e22745 0.0 102064
02:00+21ene4573100 0.0 1020164
05:00+21ene347755 0.0 1020261
08:00+21ene34805 0.0 1022295
11:00+21ene3477100 0.0 1023346
14:00+22se457548 0.0 1022342
17:00+21ese457699 0.0 1022324
20:00+21e567782 0.0 1023272
19 october, tue
tue1923:00+21ene567732 0.0 1024295
02:00+21ene577825 0.0 1024367
05:00+21ene57789 0.0 1024394
08:00+20ene577656 0.0 1024325
11:00+22ene7969100 0.0 1025494
14:00+23e91063100 0.0 1024458
17:00+23e9116135 0.0 1022405
20:00+22ene8106382 0.0 1023289
20 october, wed
wed2023:00+22ene676519 0.0 1023196
02:00+21ene576856 0.0 1023236
05:00+21ne57635 0.0 1021172
08:00+21ne55565 0.0 1021111
11:00+22e44575 0.0 1022164
14:00+22se44615 0.0 1022251
17:00+22sse33705 0.0 1020226
20:00+20wsw327559 0.0 1020115
21 october, thu
thu2123:00+21wsw33735 0.0 1020112
02:00+21sw337447 0.0 1019149
05:00+21wsw34763 0.0 1018183
08:00+21wsw44740 0.0 1017156
11:00+21sw55738 0.0 1018237
14:00+21sw8875100 0.0 1017401
17:00+21wsw8976100 0.0 1014356
20:00+21sw457524 0.0 1014179